Voltar ao catálogo

ASIASAT 4

AtivoComunicaçõesGEO
NORAD 27718·PAYLOAD·🇸🇭 SH

Lançado Apr 12, 2003 de Cape Canaveral Space Force Station

Loading…

TLE

AtualizadoSource: Space-Track

Época: Sep 14, 2026, 13:22 UTC

1 27718U 03014A   26257.55729080 -.00000229  00000-0  00000-0 0  9995
2 27718   4.9261  74.5758 0002739 105.5706 161.5749  1.00270674 46190

Acompanhe ASIASAT 4 em tempo real com AllMySat

Download on the App Store